This is the latest recevied weather packets stored in our database for station/object F4LNO-10. If no packets are shown the sender has not sent any weather packets the latest 10 day(s).
| Time | Temp. | Humidity | Pressure | Rain* | Wind** | Luminosity | Snow |
|---|---|---|---|---|---|---|---|
| 1777668658 | 22.78° C | 51% | 1024.7 hPa | - | - | - | - |
| 1777667757 | 22.78° C | 51% | 1024.8 hPa | - | - | - | - |
| 1777666856 | 22.78° C | 52% | 1024.7 hPa | - | - | - | - |
| 1777665955 | 22.22° C | 53% | 1024.7 hPa | - | - | - | - |
| 1777665054 | 21.11° C | 55% | 1024.6 hPa | - | - | - | - |
| 1777664174 | 21.67° C | 57% | 1024.4 hPa | - | - | - | - |
| 1777663273 | 22.78° C | 53% | 1024.1 hPa | - | - | - | - |
| 1777662372 | 22.78° C | 52% | 1023.9 hPa | - | - | - | - |
| 1777661471 | 23.33° C | 52% | 1023.8 hPa | - | - | - | - |
| 1777660570 | 23.33° C | 53% | 1023.9 hPa | - | - | - | - |
| 1777659669 | 22.78° C | 55% | 1023.9 hPa | - | - | - | - |
| 1777658769 | 22.78° C | 52% | 1023.7 hPa | - | - | - | - |
| 1777657868 | 23.33° C | 50% | 1023.6 hPa | - | - | - | - |
| 1777656967 | 23.33° C | 50% | 1023.7 hPa | - | - | - | - |
| 1777656066 | 22.78° C | 50% | 1023.6 hPa | - | - | - | - |
| 1777655165 | 23.33° C | 49% | 1023.7 hPa | - | - | - | - |
| 1777654264 | 22.78° C | 50% | 1023.8 hPa | - | - | - | - |
| 1777653363 | 22.78° C | 49% | 1023.8 hPa | - | - | - | - |
| 1777652463 | 22.78° C | 50% | 1023.7 hPa | - | - | - | - |
| 1777651562 | 22.78° C | 49% | 1023.8 hPa | - | - | - | - |
| 1777650661 | 22.78° C | 50% | 1023.9 hPa | - | - | - | - |
| 1777649760 | 23.33° C | 50% | 1023.9 hPa | - | - | - | - |
| 1777648859 | 22.78° C | 49% | 1024.1 hPa | - | - | - | - |
| 1777647958 | 23.33° C | 50% | 1024.2 hPa | - | - | - | - |
| 1777647058 | 22.78° C | 49% | 1024.3 hPa | - | - | - | - |
* Rain since midnight (hover to see other rain measurements)
** Current wind speed in m/s (hover to see current wind gust speed)